Location: Palombina Nuova
(43.6167°N, 13.4000°E)
Time: 02:49:11
(UTC+00:00)

NOSS 3-1 (A) - Pass Details

Date: 17 February 2020
Orbit: 761 x 1452 km, 63.4° (Epoch: 26 March)

Event Time Altitude Azimuth Distance (km) Brightness Sun altitude
Exits shadow 03:39:14 29° 320° (NW) 2,093 4.9 -26.6°
Maximum altitude 03:43:41 83° 236° (SW) 1,333 4.0 -25.8°
Drops below altitude 10° 03:52:24 10° 150° (SSE) 3,513 6.7 -24.3°
Sets 03:55:26 0° 150° (SSE) 4,520 7.3 -23.7°
